[[{"header":{"parameterUnit":"m.s-1","parameterCategory":1,"la1":30.2991,"la2":30.254,"lo1":-89.0895,"lo2":-89.0444,"dy":0.0017,"dx":0.0017,"nx":28,"ny":28,"refTime":"2025-06-19T09:00:00:Z","depth":0,"parameterNumber":2,"parameterNumberName":"U-component_of_WINDS"},"data":[0,0,0,0,0,0,0,0,0,0,0,0,0,0,0,0,0,0,0,0,0,0,0,0,0,0,0,0,0,0,0,0,0,0,0,0,0,0,0,0,0,0,0,0,0,0,0,0,0,0,0,0,0,0,0,0,0,0,2.7794,2.7795,0,2.7877,2.7878,2.7879,2.7859,2.7858,2.7856,2.7855,2.7943,2.7947,2.7951,0,0,0,0,0,0,0,0,0,0,0,0,0,2.762,2.7624,2.7794,2.7795,2.7796,2.7877,2.7878,2.788,2.786,2.7858,2.7856,2.7854,2.7942,2.7946,2.7951,0,0,0,0,0,0,0,0,0,0,0,0,0,2.7699,2.7625,2.7793,2.7796,2.7797,2.7877,2.7878,2.788,2.786,2.7858,2.7855,2.7853,2.794,2.7946,2.7952,2.8036,0,0,2.7969,2.7972,0,0,0,0,0,0,0,0,2.7695,2.7706,2.7794,2.7796,2.7797,2.7855,2.785,2.7932,2.7861,2.7836,2.7855,2.7852,2.7916,2.7924,2.7945,2.804,2.8044,2.797,2.7973,2.7976,2.7978,0,0,0,0,0,0,0,2.7689,2.7702,2.7827,2.7796,2.7797,2.7794,2.7802,2.7865,2.7889,2.7838,2.7837,2.7847,2.7916,2.7939,2.7947,2.8045,2.797,2.7975,2.7978,2.7981,2.8216,2.8219,0,0,0,0,0,0,2.7682,2.7697,2.7824,2.7829,2.7739,2.7799,2.7808,2.7839,2.7888,2.7893,2.7849,2.7846,2.7931,2.794,2.795,2.8053,2.7976,2.7981,2.7985,2.8214,2.8217,2.822,0,0,0,0,0,0,2.7679,2.7694,2.7821,2.7763,2.7779,2.7804,2.7839,2.7842,2.7865,2.7896,2.7901,2.7868,2.7929,2.7942,2.8015,2.8056,2.7984,2.7989,2.821,2.8215,2.8218,2.826,0,0,0,0,0,0,2.7674,2.7692,2.7724,2.7764,2.7782,2.7883,2.7842,2.7845,2.7875,2.7871,2.7915,2.792,2.7928,2.8007,2.8021,2.8063,2.7994,2.8207,2.8212,2.8217,2.8255,2.8265,2.8274,0,0,0,0,0,2.7668,2.7732,2.7725,2.7741,2.7821,2.7886,2.7896,2.7904,2.7878,2.791,2.7931,2.7919,2.8049,2.8014,2.803,2.8074,2.8204,2.8211,2.8217,2.8251,2.8263,2.8273,0,0,0,0,0,0,2.7696,2.7737,2.773,2.7809,2.7844,2.7882,2.7923,2.7916,2.7959,2.7955,2.7963,2.7973,2.8048,2.8068,2.8029,2.816,2.8123,2.8133,2.8144,2.8156,2.8165,2.8159,2.7998,0,0,0,0,0,2.7712,2.776,2.7793,2.786,2.7878,2.7898,2.7926,2.7929,2.7965,2.798,2.8006,2.8043,2.8093,2.8125,2.8172,2.8258,2.8268,2.8296,2.8306,2.8313,2.8322,2.8371,2.8384,2.8241,2.8241,2.824,0,0,2.7744,2.7773,2.7802,2.7867,2.7894,2.7945,2.791,2.7965,2.8003,2.7989,2.806,2.808,2.8122,2.8203,2.8239,2.8222,2.8364,2.8321,2.8327,2.8331,2.8379,2.8392,2.8404,2.8245,2.8244,2.8243,0,0,2.783,2.7856,2.7915,2.7943,2.7985,2.7998,2.8012,2.8052,2.8065,2.8136,2.8127,2.8174,2.8258,2.8289,2.8316,2.8416,2.8407,2.8431,2.848,2.8527,2.8539,2.8549,2.8586,2.8599,2.8439,2.8439,2.8439,0,2.7866,2.7941,2.7946,2.8003,2.8032,2.8021,2.8083,2.811,2.8165,2.8187,2.8166,2.8274,2.8301,2.839,2.8414,2.8436,2.8454,2.8426,2.8536,2.8547,2.8556,2.8592,2.8606,2.8442,2.8442,2.8442,2.8441,0,2.7984,2.8036,2.8079,2.8133,2.8167,2.8225,2.8242,2.8276,2.8276,2.8292,2.8366,2.8399,2.8453,2.8474,2.8475,2.8564,2.8552,2.8534,2.8498,2.8573,2.8607,2.862,2.8446,2.8445,2.8444,2.8444,0,0,2.8089,2.8146,2.8162,2.8187,2.8234,2.8275,2.8334,2.8387,2.8417,2.8456,2.8507,2.858,2.8564,2.8594,2.8599,2.864,2.872,2.8617,2.8619,2.8637,2.8822,2.8837,2.8852,2.8714,2.8717,2.8719,2.8819,0,2.818,2.8283,2.8291,2.8384,2.8434,2.8426,2.8477,2.8512,2.8529,2.8575,2.8594,2.8646,2.862,2.8638,2.8679,2.8701,2.8757,2.8694,2.8763,2.8766,2.8754,2.887,2.8884,2.8978,2.8832,2.8835,2.8836,0,2.83,2.8343,2.8441,2.8482,2.8504,2.855,2.86,2.8643,2.8683,2.8693,2.8728,2.8727,2.879,2.875,2.8838,2.8795,2.8824,2.8839,2.8843,2.885,2.8806,2.8882,2.9007,2.9022,2.8857,2.8855,2.8854,0,2.837,2.8452,2.8522,2.8543,2.8592,2.8626,2.8648,2.8685,2.8717,2.8762,2.8783,2.8834,2.8863,2.8903,2.8917,2.8887,2.9005,2.8966,2.9016,2.9016,2.9042,2.904,2.9175,2.9058,2.9058,2.9058,2.9057,0,2.8471,2.8532,2.8554,2.8597,2.8666,2.8675,2.8743,2.8764,2.8798,2.8846,2.8842,2.8887,2.8902,2.8951,2.8962,2.9034,2.9047,2.9057,2.906,2.9059,2.9058,2.9078,2.9073,2.9061,2.9061,2.906,2.9059,0,2.8561,2.8577,2.8653,2.8694,2.8706,2.8755,2.879,2.8833,2.8849,2.8911,2.8926,2.8952,2.9009,2.9027,2.9096,2.9104,2.9188,2.9184,2.9175,2.9175,2.9225,2.9221,2.9379,2.9401,2.9268,2.927,2.9271,0,2.8625,2.8672,2.8718,2.8749,2.8773,2.8824,2.8857,2.8868,2.8903,2.8953,2.899,2.9047,2.9093,2.9186,2.9212,2.9265,2.9263,2.9315,2.9271,2.9269,2.9266,2.9264,2.927,2.9324,2.9325,2.9326,2.9327,0,2.8738,2.8744,2.8791,2.8842,2.8881,2.8922,2.8961,2.8988,2.9005,2.9044,2.9103,2.9139,2.921,2.9267,2.9321,2.9346,2.9341,2.9341,2.9356,2.9355,2.9348,2.9355,2.9199,2.9337,2.9336,2.9336,2.9335,2.9335,2.8818,2.886,2.8899,2.8953,2.8983,2.902,2.9063,2.9085,2.9133,2.9192,2.9196,2.926,2.9301,2.9374,2.9401,2.9452,2.9437,2.9458,2.9464,2.9469,2.9474,2.9339,2.9462,2.9462,2.9461,2.9461,2.9461,0,2.8932,2.8958,2.9006,2.9061,2.9104,2.9094,2.9137,2.9174,2.923,2.9268,2.9314,2.9382,2.9438,2.9469,2.9525,2.956,2.9559,2.9575,2.9573,2.9579,2.9483,2.9465,2.9575,2.9575,2.9575,2.9575,2.9574,2.9574,2.8997,2.9068,2.908,2.9167,2.9192,2.9254,2.928,2.9315,2.9345,2.9422,2.9468,2.9487,2.9523,2.9582,2.9634,2.9642,2.9663,2.9681,2.9687,2.9597,2.9586,2.9574,2.9558,2.9685,2.9685,2.9779,2.978,2.9781]},{"header":{"parameterUnit":"m.s-1","parameterCategory":1,"la1":30.2991,"la2":30.254,"lo1":-89.0895,"lo2":-89.0444,"dy":0.0017,"dx":0.0017,"nx":28,"ny":28,"refTime":"2025-06-19T09:00:00:Z","depth":0,"parameterNumber":3,"parameterNumberName":"V-component_of_WINDS"},"data":[0,0,0,0,0,0,0,0,0,0,0,0,0,0,0,0,0,0,0,0,0,0,0,0,0,0,0,0,0,0,0,0,0,0,0,0,0,0,0,0,0,0,0,0,0,0,0,0,0,0,0,0,0,0,0,0,0,0,-0.7941,-0.7941,0,-0.7971,-0.7971,-0.7972,-0.7973,-0.7973,-0.7972,-0.7972,-0.8004,-0.8005,-0.8006,0,0,0,0,0,0,0,0,0,0,0,0,0,-0.7886,-0.7887,-0.7941,-0.7941,-0.7941,-0.7971,-0.7971,-0.7972,-0.7973,-0.7973,-0.7972,-0.7972,-0.8004,-0.8005,-0.8006,0,0,0,0,0,0,0,0,0,0,0,0,0,-0.7912,-0.7887,-0.7941,-0.7946,-0.7946,-0.7971,-0.7971,-0.7972,-0.7973,-0.7973,-0.7972,-0.7972,-0.8003,-0.8005,-0.8007,-0.8028,0,0,-0.8012,-0.8013,0,0,0,0,0,0,0,0,-0.7911,-0.7914,-0.7944,-0.7945,-0.7946,-0.7968,-0.7964,-0.7991,-0.7973,-0.7963,-0.7972,-0.7971,-0.7992,-0.7995,-0.8002,-0.803,-0.8031,-0.8012,-0.8013,-0.8014,-0.8015,0,0,0,0,0,0,0,-0.7909,-0.7913,-0.7953,-0.7945,-0.7946,-0.7947,-0.795,-0.7969,-0.798,-0.7964,-0.7964,-0.7968,-0.7993,-0.8,-0.8003,-0.8032,-0.8012,-0.8014,-0.8015,-0.8016,-0.8082,-0.8083,0,0,0,0,0,0,-0.7906,-0.7912,-0.7952,-0.7954,-0.7927,-0.7949,-0.7952,-0.7961,-0.798,-0.7983,-0.7968,-0.7968,-0.7997,-0.8001,-0.8004,-0.8032,-0.8014,-0.8016,-0.8017,-0.8081,-0.8082,-0.8083,0,0,0,0,0,0,-0.7905,-0.791,-0.795,-0.7933,-0.7938,-0.795,-0.796,-0.7962,-0.797,-0.7983,-0.7986,-0.7973,-0.7997,-0.8001,-0.8023,-0.8033,-0.8017,-0.8018,-0.808,-0.8082,-0.8082,-0.8088,0,0,0,0,0,0,-0.7903,-0.7909,-0.7917,-0.7933,-0.7939,-0.7968,-0.7961,-0.7963,-0.7973,-0.7972,-0.7989,-0.7991,-0.7997,-0.802,-0.8025,-0.8036,-0.802,-0.808,-0.8081,-0.8082,-0.8087,-0.809,-0.8091,0,0,0,0,0,-0.7901,-0.7917,-0.7917,-0.7922,-0.7949,-0.7969,-0.7972,-0.7978,-0.7973,-0.7982,-0.7991,-0.7991,-0.8031,-0.8022,-0.8027,-0.8039,-0.8079,-0.8081,-0.8082,-0.8086,-0.8089,-0.8091,0,0,0,0,0,0,-0.7902,-0.7919,-0.792,-0.7941,-0.7953,-0.7969,-0.798,-0.7981,-0.7995,-0.7994,-0.8002,-0.8005,-0.8027,-0.8035,-0.8025,-0.8062,-0.8055,-0.8057,-0.8056,-0.8059,-0.8061,-0.8059,-0.8021,0,0,0,0,0,-0.7904,-0.7919,-0.7933,-0.795,-0.7957,-0.7967,-0.7976,-0.798,-0.7993,-0.7999,-0.8009,-0.8023,-0.8039,-0.8049,-0.8065,-0.8089,-0.8093,-0.8099,-0.8101,-0.8103,-0.8105,-0.8121,-0.8124,-0.8088,-0.8088,-0.8088,0,0,-0.791,-0.7921,-0.7929,-0.7951,-0.7961,-0.7977,-0.7972,-0.7988,-0.8,-0.8001,-0.8023,-0.8031,-0.8047,-0.807,-0.8081,-0.8077,-0.8116,-0.8105,-0.8106,-0.8108,-0.8123,-0.8126,-0.8129,-0.8089,-0.8089,-0.8089,0,0,-0.7928,-0.7937,-0.7953,-0.7964,-0.798,-0.7987,-0.7991,-0.8007,-0.8013,-0.8034,-0.8036,-0.8051,-0.8078,-0.809,-0.8099,-0.8124,-0.8125,-0.8129,-0.814,-0.8155,-0.8158,-0.8161,-0.8171,-0.8175,-0.8131,-0.8131,-0.8131,0,-0.7932,-0.7955,-0.7962,-0.7979,-0.7989,-0.7991,-0.8009,-0.8019,-0.8039,-0.8046,-0.8042,-0.8078,-0.8088,-0.8115,-0.8122,-0.8129,-0.8135,-0.8127,-0.8157,-0.816,-0.8162,-0.8173,-0.8176,-0.8132,-0.8132,-0.8132,-0.8132,0,-0.7962,-0.7978,-0.7989,-0.8009,-0.8021,-0.8038,-0.8048,-0.8059,-0.8062,-0.807,-0.8093,-0.8106,-0.8125,-0.8132,-0.8135,-0.816,-0.8158,-0.8155,-0.8148,-0.8166,-0.8176,-0.818,-0.8133,-0.8132,-0.8132,-0.8132,0,0,-0.798,-0.8004,-0.8008,-0.8018,-0.8037,-0.805,-0.8068,-0.8087,-0.8097,-0.8111,-0.8128,-0.8151,-0.815,-0.8161,-0.8165,-0.8178,-0.82,-0.8174,-0.8175,-0.818,-0.8231,-0.8234,-0.8238,-0.82,-0.8201,-0.8202,-0.823,0,-0.8001,-0.8033,-0.804,-0.8067,-0.8084,-0.8087,-0.8103,-0.8117,-0.8126,-0.8141,-0.8151,-0.8168,-0.8164,-0.8171,-0.8184,-0.8194,-0.821,-0.8192,-0.8217,-0.8218,-0.8214,-0.8243,-0.8246,-0.8272,-0.8234,-0.8235,-0.8235,0,-0.8029,-0.8045,-0.8075,-0.8093,-0.81,-0.8114,-0.8133,-0.8148,-0.8164,-0.817,-0.8183,-0.8187,-0.8207,-0.8199,-0.8228,-0.8216,-0.8227,-0.8234,-0.8235,-0.8238,-0.8228,-0.8249,-0.828,-0.8285,-0.8241,-0.8241,-0.824,0,-0.8042,-0.807,-0.8092,-0.81,-0.8122,-0.8132,-0.8142,-0.8158,-0.8169,-0.8186,-0.8194,-0.8213,-0.8224,-0.8239,-0.8249,-0.8241,-0.8278,-0.827,-0.8285,-0.8285,-0.8293,-0.8292,-0.8328,-0.8298,-0.8298,-0.8298,-0.8297,0,-0.8065,-0.8083,-0.8098,-0.8112,-0.8133,-0.8142,-0.8163,-0.8173,-0.8187,-0.8204,-0.8208,-0.8224,-0.8235,-0.8252,-0.826,-0.8285,-0.8289,-0.8295,-0.8297,-0.8295,-0.8295,-0.8303,-0.8302,-0.8299,-0.8298,-0.8298,-0.8298,0,-0.8082,-0.8093,-0.8117,-0.8136,-0.8142,-0.8157,-0.8174,-0.8188,-0.8197,-0.8218,-0.8223,-0.8238,-0.8259,-0.827,-0.8296,-0.8302,-0.833,-0.833,-0.8324,-0.8325,-0.834,-0.8339,-0.8383,-0.8391,-0.8354,-0.8355,-0.8355,0,-0.8097,-0.8111,-0.8132,-0.8144,-0.8154,-0.8172,-0.8184,-0.8194,-0.8207,-0.8228,-0.824,-0.8262,-0.8279,-0.8314,-0.8327,-0.8348,-0.835,-0.8364,-0.8353,-0.8351,-0.8352,-0.8351,-0.8354,-0.8366,-0.8366,-0.8366,-0.8367,0,-0.8122,-0.8127,-0.8145,-0.8165,-0.8179,-0.8195,-0.8211,-0.8221,-0.8233,-0.8248,-0.827,-0.8284,-0.8311,-0.8334,-0.8356,-0.8367,-0.837,-0.837,-0.8375,-0.8374,-0.8371,-0.8374,-0.8331,-0.8369,-0.8369,-0.8369,-0.8368,-0.8368,-0.814,-0.8154,-0.8171,-0.8191,-0.8205,-0.822,-0.8235,-0.8246,-0.8265,-0.8288,-0.8293,-0.8317,-0.8335,-0.8365,-0.8377,-0.8397,-0.8394,-0.8401,-0.8403,-0.8404,-0.8406,-0.8367,-0.8401,-0.8401,-0.8401,-0.8401,-0.8401,0,-0.8167,-0.8179,-0.8197,-0.822,-0.8236,-0.8237,-0.8256,-0.8269,-0.829,-0.8307,-0.8325,-0.8352,-0.8373,-0.8389,-0.8412,-0.8425,-0.8427,-0.8431,-0.8431,-0.8434,-0.8406,-0.8401,-0.8429,-0.8429,-0.8429,-0.8429,-0.8429,-0.8429,-0.8183,-0.8207,-0.8215,-0.8246,-0.8258,-0.8282,-0.8293,-0.8307,-0.8321,-0.8351,-0.8369,-0.8379,-0.8397,-0.8421,-0.8442,-0.8446,-0.8455,-0.8459,-0.8464,-0.8438,-0.8435,-0.8432,-0.8427,-0.8461,-0.8461,-0.849,-0.849,-0.849]}]]